Time,TemperatureF,DewpointF,PressureIn,WindDirection,WindDirectionDegrees,WindSpeedMPH,WindSpeedGustMPH,Humidity,HourlyPrecipIn,Conditions,Clouds,dailyrainin,SoftwareType,DateUTC
2013-01-19 00:01:00,36.5,31.5,29.83,WSW,247,6.0,6.0,82,0.00,,,0.04,Wunderground v.1.15,2013-01-19 06:01:00,
2013-01-19 00:02:00,36.5,31.5,29.83,WSW,243,6.0,6.0,82,0.00,,,0.04,Wunderground v.1.15,2013-01-19 06:02:00,
2013-01-19 00:03:00,36.5,31.5,29.83,WSW,244,6.0,6.0,82,0.00,,,0.04,Wunderground v.1.15,2013-01-19 06:03:00,
2013-01-19 00:06:00,36.4,31.4,29.83,WSW,237,6.0,8.0,82,0.00,,,0.04,Wunderground v.1.15,2013-01-19 06:06:00,
2013-01-19 00:07:00,36.4,32.0,29.83,WSW,257,5.0,-999.0,83,-99.99,,,0.04,weatherlink.com 1.10,2013-01-19 06:07:00,
2013-01-19 00:08:00,36.4,31.4,29.83,SW,234,6.0,8.0,82,0.00,,,0.04,Wunderground v.1.15,2013-01-19 06:08:00,
2013-01-19 00:13:00,36.3,31.3,29.83,WSW,249,6.0,8.0,82,0.00,,,0.04,Wunderground v.1.15,2013-01-19 06:13:00,
2013-01-19 00:14:00,36.2,31.2,29.83,WSW,249,6.0,8.0,82,0.00,,,0.04,Wunderground v.1.15,2013-01-19 06:14:00,
2013-01-19 00:17:00,36.1,31.4,29.83,WSW,245,5.0,6.0,83,0.00,,,0.04,Wunderground v.1.15,2013-01-19 06:17:00,
2013-01-19 00:18:00,36.1,31.4,29.83,WSW,257,5.0,6.0,83,0.00,,,0.04,Wunderground v.1.15,2013-01-19 06:18:00,
2013-01-19 00:21:00,36.0,31.3,29.84,WSW,255,5.0,6.0,83,0.00,,,0.04,Wunderground v.1.15,2013-01-19 06:21:00,
2013-01-19 00:22:00,35.9,31.2,29.84,SW,233,5.0,6.0,83,0.00,,,0.00,Wunderground v.1.15,2013-01-19 06:22:00,
2013-01-19 00:23:00,35.9,31.2,29.84,WSW,249,5.0,6.0,83,0.00,,,0.00,Wunderground v.1.15,2013-01-19 06:23:00,
2013-01-19 00:27:00,35.9,31.2,29.84,WSW,246,5.0,10.0,83,0.00,,,0.00,Wunderground v.1.15,2013-01-19 06:27:00,
2013-01-19 00:28:00,35.9,31.2,29.84,WSW,244,5.0,10.0,83,0.00,,,0.00,Wunderground v.1.15,2013-01-19 06:28:00,
2013-01-19 00:29:00,35.9,31.2,29.84,WSW,245,5.0,10.0,83,0.00,,,0.00,Wunderground v.1.15,2013-01-19 06:29:00,
2013-01-19 00:30:00,35.9,31.2,29.84,SW,233,5.0,10.0,83,0.00,,,0.00,Wunderground v.1.15,2013-01-19 06:30:00,
2013-01-19 00:33:00,35.8,31.1,29.84,WSW,240,5.0,10.0,83,0.00,,,0.00,Wunderground v.1.15,2013-01-19 06:33:00,
2013-01-19 00:35:00,35.8,31.1,29.84,WSW,242,5.0,10.0,83,0.00,,,0.00,Wunderground v.1.15,2013-01-19 06:35:00,
2013-01-19 00:36:00,35.8,31.1,29.84,SW,234,5.0,10.0,83,0.00,,,0.00,Wunderground v.1.15,2013-01-19 06:36:00,
2013-01-19 00:39:00,35.7,31.3,29.84,WSW,245,5.0,10.0,84,0.00,,,0.00,Wunderground v.1.15,2013-01-19 06:39:00,
2013-01-19 00:40:00,35.8,31.4,29.84,SW,234,5.0,10.0,84,0.00,,,0.00,Wunderground v.1.15,2013-01-19 06:40:00,
2013-01-19 00:44:00,35.7,31.0,29.84,WSW,254,5.0,10.0,83,0.00,,,0.00,Wunderground v.1.15,2013-01-19 06:44:00,
2013-01-19 00:45:00,35.7,31.3,29.84,WSW,244,5.0,10.0,84,0.00,,,0.00,Wunderground v.1.15,2013-01-19 06:45:00,
2013-01-19 00:46:00,35.7,31.3,29.84,WSW,237,6.0,6.0,84,0.00,,,0.00,Wunderground v.1.15,2013-01-19 06:46:00,
2013-01-19 00:48:00,35.7,31.3,29.84,WSW,246,6.0,10.0,84,0.00,,,0.00,Wunderground v.1.15,2013-01-19 06:48:00,
2013-01-19 00:51:00,35.6,31.2,29.84,SW,234,5.0,10.0,84,0.00,,,0.00,Wunderground v.1.15,2013-01-19 06:51:00,
2013-01-19 00:53:00,35.6,31.2,29.84,WSW,243,5.0,10.0,84,0.00,,,0.00,Wunderground v.1.15,2013-01-19 06:53:00,
2013-01-19 00:54:00,35.5,31.0,29.84,WSW,246,5.0,-999.0,84,-99.99,,,0.00,weatherlink.com 1.10,2013-01-19 06:54:00,
2013-01-19 00:57:00,35.5,31.1,29.85,WSW,244,5.0,5.0,84,0.00,,,0.00,Wunderground v.1.15,2013-01-19 06:57:00,
2013-01-19 00:59:00,35.5,31.1,29.85,SW,227,5.0,5.0,84,0.00,,,0.00,Wunderground v.1.15,2013-01-19 06:59:00,
2013-01-19 01:00:00,35.5,31.1,29.84,SW,227,5.0,5.0,84,0.00,,,0.00,Wunderground v.1.15,2013-01-19 07:00:00,
2013-01-19 01:03:00,35.3,30.9,29.84,WSW,248,5.0,5.0,84,0.00,,,0.00,Wunderground v.1.15,2013-01-19 07:03:00,
2013-01-19 01:05:00,35.3,30.9,29.85,WSW,241,5.0,7.0,84,0.00,,,0.00,Wunderground v.1.15,2013-01-19 07:05:00,
2013-01-19 01:08:00,35.3,31.0,29.85,WSW,246,5.0,-999.0,84,-99.99,,,0.00,weatherlink.com 1.10,2013-01-19 07:08:00,
2013-01-19 01:11:00,35.2,30.9,29.85,WSW,246,5.0,6.0,84,0.00,,,0.00,Wunderground v.1.15,2013-01-19 07:11:00,
2013-01-19 01:13:00,35.2,30.9,29.85,WSW,257,5.0,6.0,84,0.00,,,0.00,Wunderground v.1.15,2013-01-19 07:13:00,
2013-01-19 01:14:00,35.2,30.9,29.85,WSW,254,5.0,6.0,84,0.00,,,0.00,Wunderground v.1.15,2013-01-19 07:14:00,
2013-01-19 01:18:00,35.1,30.8,29.85,WSW,249,5.0,7.0,84,0.00,,,0.00,Wunderground v.1.15,2013-01-19 07:18:00,
2013-01-19 01:19:00,35.1,31.0,29.85,WSW,246,5.0,7.0,85,0.00,,,0.00,Wunderground v.1.15,2013-01-19 07:19:00,
2013-01-19 01:22:00,35.1,31.0,29.85,WSW,248,5.0,7.0,85,0.00,,,0.00,Wunderground v.1.15,2013-01-19 07:22:00,
2013-01-19 01:23:00,35.0,30.9,29.85,WSW,255,5.0,7.0,85,0.00,,,0.00,Wunderground v.1.15,2013-01-19 07:23:00,
2013-01-19 01:28:00,35.0,30.9,29.85,WSW,248,6.0,9.0,85,0.00,,,0.00,Wunderground v.1.15,2013-01-19 07:28:00,
2013-01-19 01:29:00,34.9,30.8,29.85,WSW,245,5.0,9.0,85,0.00,,,0.00,Wunderground v.1.15,2013-01-19 07:29:00,
2013-01-19 01:31:00,34.8,30.8,29.85,WSW,242,5.0,9.0,85,0.00,,,0.00,Wunderground v.1.15,2013-01-19 07:31:00,
2013-01-19 01:36:00,34.8,30.8,29.85,WSW,257,5.0,9.0,85,0.00,,,0.00,Wunderground v.1.15,2013-01-19 07:36:00,
2013-01-19 01:37:00,34.8,30.8,29.85,WSW,250,5.0,9.0,85,0.00,,,0.00,Wunderground v.1.15,2013-01-19 07:37:00,
2013-01-19 01:38:00,34.7,31.0,29.85,WSW,250,4.0,-999.0,85,-99.99,,,0.00,weatherlink.com 1.10,2013-01-19 07:38:00,
2013-01-19 01:40:00,34.6,30.6,29.85,West,266,5.0,9.0,85,0.00,,,0.00,Wunderground v.1.15,2013-01-19 07:40:00,
2013-01-19 01:44:00,34.4,30.4,29.85,WSW,239,5.0,9.0,85,0.00,,,0.00,Wunderground v.1.15,2013-01-19 07:44:00,
2013-01-19 01:46:00,34.3,30.3,29.85,WSW,249,4.0,4.0,85,0.00,,,0.00,Wunderground v.1.15,2013-01-19 07:46:00,
2013-01-19 01:48:00,34.1,30.1,29.85,West,263,4.0,9.0,85,0.00,,,0.00,Wunderground v.1.15,2013-01-19 07:48:00,
2013-01-19 01:50:00,34.0,30.0,29.85,West,266,4.0,9.0,85,0.00,,,0.00,Wunderground v.1.15,2013-01-19 07:50:00,
2013-01-19 01:52:00,33.9,30.0,29.86,West,260,3.0,-999.0,86,-99.99,,,0.00,weatherlink.com 1.10,2013-01-19 07:52:00,
2013-01-19 01:55:00,33.8,30.1,29.86,WSW,254,3.0,9.0,86,0.00,,,0.00,Wunderground v.1.15,2013-01-19 07:55:00,
2013-01-19 01:57:00,33.8,30.1,29.86,WSW,258,3.0,4.0,86,0.00,,,0.00,Wunderground v.1.15,2013-01-19 07:57:00,
2013-01-19 01:58:00,33.8,31.7,29.86,West,272,4.0,4.0,92,0.00,,,0.00,Wunderground v.1.15,2013-01-19 07:58:00,
2013-01-19 02:02:00,33.8,30.1,29.86,West,259,4.0,6.0,86,0.00,,,0.00,Wunderground v.1.15,2013-01-19 08:02:00,
2013-01-19 02:04:00,33.8,30.1,29.86,WSW,252,4.0,6.0,86,0.00,,,0.00,Wunderground v.1.15,2013-01-19 08:04:00,
2013-01-19 02:05:00,33.8,30.1,29.86,WSW,248,4.0,6.0,86,0.00,,,0.00,Wunderground v.1.15,2013-01-19 08:05:00,
2013-01-19 02:08:00,33.9,30.0,29.86,WSW,250,6.0,-999.0,86,-99.99,,,0.00,weatherlink.com 1.10,2013-01-19 08:08:00,
2013-01-19 02:09:00,34.0,30.5,29.86,WSW,248,4.0,6.0,87,0.00,,,0.00,Wunderground v.1.15,2013-01-19 08:09:00,
2013-01-19 02:10:00,34.0,30.5,29.86,WSW,250,4.0,8.0,87,0.00,,,0.00,Wunderground v.1.15,2013-01-19 08:10:00,
2013-01-19 02:14:00,34.3,30.5,29.86,WSW,244,5.0,8.0,86,0.00,,,0.00,Wunderground v.1.15,2013-01-19 08:14:00,
2013-01-19 02:15:00,34.4,30.6,29.86,WSW,248,5.0,8.0,86,0.00,,,0.00,Wunderground v.1.15,2013-01-19 08:15:00,
2013-01-19 02:16:00,34.4,30.6,29.86,WSW,245,5.0,5.0,86,0.00,,,0.00,Wunderground v.1.15,2013-01-19 08:16:00,
2013-01-19 02:21:00,34.6,30.8,29.86,SW,223,5.0,7.0,86,0.00,,,0.00,Wunderground v.1.15,2013-01-19 08:21:00,
2013-01-19 02:22:00,34.6,30.8,29.86,WSW,239,5.0,7.0,86,0.00,,,0.00,Wunderground v.1.15,2013-01-19 08:22:00,
2013-01-19 02:23:00,34.6,30.8,29.86,SW,236,5.0,7.0,86,0.00,,,0.00,Wunderground v.1.15,2013-01-19 08:23:00,
2013-01-19 02:24:00,34.6,30.8,29.86,WSW,252,5.0,7.0,86,0.00,,,0.00,Wunderground v.1.15,2013-01-19 08:24:00,
2013-01-19 02:28:00,34.6,30.8,29.86,WSW,252,5.0,8.0,86,0.00,,,0.00,Wunderground v.1.15,2013-01-19 08:28:00,
2013-01-19 02:30:00,34.6,30.8,29.86,WSW,238,5.0,8.0,86,0.00,,,0.00,Wunderground v.1.15,2013-01-19 08:30:00,
2013-01-19 02:31:00,34.6,30.8,29.86,West,259,5.0,8.0,86,0.00,,,0.00,Wunderground v.1.15,2013-01-19 08:31:00,
2013-01-19 02:34:00,34.6,30.8,29.86,West,261,6.0,8.0,86,0.00,,,0.00,Wunderground v.1.15,2013-01-19 08:34:00,
2013-01-19 02:35:00,34.7,30.9,29.86,WSW,252,6.0,8.0,86,0.00,,,0.00,Wunderground v.1.15,2013-01-19 08:35:00,
2013-01-19 02:38:00,34.6,31.0,29.86,SW,235,7.0,-999.0,86,-99.99,,,0.00,weatherlink.com 1.10,2013-01-19 08:38:00,
2013-01-19 02:40:00,34.6,30.8,29.86,West,259,6.0,8.0,86,0.00,,,0.00,Wunderground v.1.15,2013-01-19 08:40:00,
2013-01-19 02:42:00,34.6,30.6,29.86,WSW,248,6.0,8.0,85,0.00,,,0.00,Wunderground v.1.15,2013-01-19 08:42:00,
2013-01-19 02:43:00,34.6,30.8,29.86,WSW,238,6.0,8.0,86,0.00,,,0.00,Wunderground v.1.15,2013-01-19 08:43:00,
2013-01-19 02:44:00,34.6,30.6,29.86,WSW,238,6.0,8.0,85,0.00,,,0.00,Wunderground v.1.15,2013-01-19 08:44:00,
2013-01-19 02:47:00,34.5,30.5,29.86,WSW,249,6.0,7.0,85,0.00,,,0.00,Wunderground v.1.15,2013-01-19 08:47:00,
2013-01-19 02:49:00,34.5,30.5,29.86,WSW,250,6.0,8.0,85,0.00,,,0.00,Wunderground v.1.15,2013-01-19 08:49:00,
2013-01-19 02:51:00,34.4,30.6,29.86,WSW,249,6.0,8.0,86,0.00,,,0.00,Wunderground v.1.15,2013-01-19 08:51:00,
2013-01-19 02:54:00,34.4,30.6,29.85,WSW,246,6.0,8.0,86,0.00,,,0.00,Wunderground v.1.15,2013-01-19 08:54:00,
2013-01-19 02:55:00,34.4,30.6,29.85,WSW,251,6.0,8.0,86,0.00,,,0.00,Wunderground v.1.15,2013-01-19 08:55:00,
2013-01-19 02:57:00,34.4,30.6,29.85,WSW,244,6.0,6.0,86,0.00,,,0.00,Wunderground v.1.15,2013-01-19 08:57:00,
2013-01-19 03:00:00,34.4,30.6,29.85,WSW,251,6.0,8.0,86,0.00,,,0.00,Wunderground v.1.15,2013-01-19 09:00:00,
2013-01-19 03:04:00,34.5,30.7,29.85,WSW,244,6.0,8.0,86,0.00,,,0.00,Wunderground v.1.15,2013-01-19 09:04:00,
2013-01-19 03:06:00,34.6,30.8,29.85,WSW,243,6.0,6.0,86,0.00,,,0.00,Wunderground v.1.15,2013-01-19 09:06:00,
2013-01-19 03:07:00,34.6,30.8,29.85,West,271,6.0,6.0,86,0.00,,,0.00,Wunderground v.1.15,2013-01-19 09:07:00,
2013-01-19 03:12:00,34.7,30.9,29.85,WSW,240,5.0,7.0,86,0.00,,,0.00,Wunderground v.1.15,2013-01-19 09:12:00,
2013-01-19 03:13:00,34.7,30.9,29.85,WSW,241,5.0,7.0,86,0.00,,,0.00,Wunderground v.1.15,2013-01-19 09:13:00,
2013-01-19 03:17:00,34.7,30.7,29.85,WSW,242,5.0,5.0,85,0.00,,,0.00,Wunderground v.1.15,2013-01-19 09:17:00,
2013-01-19 03:18:00,34.6,30.6,29.85,WSW,247,5.0,5.0,85,0.00,,,0.00,Wunderground v.1.15,2013-01-19 09:18:00,
2013-01-19 03:19:00,34.6,30.6,29.85,WSW,243,5.0,5.0,85,0.00,,,0.00,Wunderground v.1.15,2013-01-19 09:19:00,
2013-01-19 03:24:00,34.6,30.8,29.85,WSW,244,5.0,6.0,86,0.00,,,0.00,Wunderground v.1.15,2013-01-19 09:24:00,
2013-01-19 03:26:00,34.6,30.8,29.85,WSW,238,4.0,5.0,86,0.00,,,0.00,Wunderground v.1.15,2013-01-19 09:26:00,
2013-01-19 03:27:00,34.6,30.8,29.85,WSW,238,4.0,9.0,86,0.00,,,0.00,Wunderground v.1.15,2013-01-19 09:27:00,
2013-01-19 03:31:00,34.5,30.7,29.85,WSW,239,4.0,9.0,86,0.00,,,0.00,Wunderground v.1.15,2013-01-19 09:31:00,
2013-01-19 03:32:00,34.5,30.7,29.85,WSW,239,4.0,9.0,86,0.00,,,0.00,Wunderground v.1.15,2013-01-19 09:32:00,
2013-01-19 03:37:00,34.4,30.6,29.85,WSW,242,4.0,9.0,86,0.00,,,0.00,Wunderground v.1.15,2013-01-19 09:37:00,
2013-01-19 03:38:00,34.4,31.0,29.85,WSW,242,2.0,-999.0,86,-99.99,,,0.00,weatherlink.com 1.10,2013-01-19 09:38:00,
2013-01-19 03:41:00,34.4,30.6,29.85,WSW,247,3.0,9.0,86,0.00,,,0.00,Wunderground v.1.15,2013-01-19 09:41:00,
2013-01-19 03:43:00,34.5,30.7,29.85,WSW,250,3.0,9.0,86,0.00,,,0.00,Wunderground v.1.15,2013-01-19 09:43:00,
2013-01-19 03:44:00,34.5,30.7,29.85,WSW,251,3.0,9.0,86,0.00,,,0.00,Wunderground v.1.15,2013-01-19 09:44:00,
2013-01-19 03:47:00,34.6,30.8,29.85,WSW,257,3.0,9.0,86,0.00,,,0.00,Wunderground v.1.15,2013-01-19 09:47:00,
2013-01-19 03:49:00,34.7,30.9,29.84,West,262,2.0,9.0,86,0.00,,,0.00,Wunderground v.1.15,2013-01-19 09:49:00,
2013-01-19 03:50:00,34.7,30.9,29.84,West,263,3.0,9.0,86,0.00,,,0.00,Wunderground v.1.15,2013-01-19 09:50:00,
2013-01-19 03:54:00,34.7,31.0,29.84,West,264,3.0,-999.0,86,-99.99,,,0.00,weatherlink.com 1.10,2013-01-19 09:54:00,
2013-01-19 03:57:00,34.8,30.8,29.84,West,265,2.0,2.0,85,0.00,,,0.00,Wunderground v.1.15,2013-01-19 09:57:00,
2013-01-19 03:59:00,34.8,31.0,29.84,West,265,2.0,3.0,86,0.00,,,0.00,Wunderground v.1.15,2013-01-19 09:59:00,
2013-01-19 04:00:00,34.8,31.0,29.84,West,265,2.0,3.0,86,0.00,,,0.00,Wunderground v.1.15,2013-01-19 10:00:00,
2013-01-19 04:02:00,34.7,30.7,29.84,West,265,2.0,3.0,85,0.00,,,0.00,Wunderground v.1.15,2013-01-19 10:02:00,
2013-01-19 04:06:00,34.6,30.8,29.84,West,265,2.0,3.0,86,0.00,,,0.00,Wunderground v.1.15,2013-01-19 10:06:00,
2013-01-19 04:07:00,34.6,30.8,29.84,West,265,2.0,3.0,86,0.00,,,0.00,Wunderground v.1.15,2013-01-19 10:07:00,
2013-01-19 04:08:00,34.6,31.0,29.84,West,265,2.0,-999.0,85,-99.99,,,0.00,weatherlink.com 1.10,2013-01-19 10:08:00,
2013-01-19 04:12:00,34.6,30.8,29.84,West,265,2.0,4.0,86,0.00,,,0.00,Wunderground v.1.15,2013-01-19 10:12:00,
2013-01-19 04:15:00,34.7,30.7,29.84,West,264,3.0,4.0,85,0.00,,,0.00,Wunderground v.1.15,2013-01-19 10:15:00,
2013-01-19 04:16:00,34.7,30.7,29.84,West,265,3.0,3.0,85,0.00,,,0.00,Wunderground v.1.15,2013-01-19 10:16:00,
2013-01-19 04:20:00,34.8,31.0,29.84,West,264,3.0,4.0,86,0.00,,,0.00,Wunderground v.1.15,2013-01-19 10:20:00,
2013-01-19 04:21:00,34.8,31.0,29.84,West,264,3.0,4.0,86,0.00,,,0.00,Wunderground v.1.15,2013-01-19 10:21:00,
2013-01-19 04:24:00,34.8,30.8,29.84,West,264,3.0,4.0,85,0.00,,,0.00,Wunderground v.1.15,2013-01-19 10:24:00,
2013-01-19 04:26:00,34.8,30.8,29.84,West,259,3.0,3.0,85,0.00,,,0.00,Wunderground v.1.15,2013-01-19 10:26:00,
2013-01-19 04:27:00,34.8,30.8,29.84,West,259,3.0,9.0,85,0.00,,,0.00,Wunderground v.1.15,2013-01-19 10:27:00,
2013-01-19 04:28:00,34.8,30.8,29.84,West,259,2.0,9.0,85,0.00,,,0.00,Wunderground v.1.15,2013-01-19 10:28:00,
2013-01-19 04:33:00,34.7,30.7,29.84,West,259,1.0,9.0,85,0.00,,,0.00,Wunderground v.1.15,2013-01-19 10:33:00,
2013-01-19 04:35:00,34.6,30.6,29.84,West,259,1.0,9.0,85,0.00,,,0.00,Wunderground v.1.15,2013-01-19 10:35:00,
2013-01-19 04:36:00,34.5,30.5,29.84,West,259,0.0,9.0,85,0.00,,,0.00,Wunderground v.1.15,2013-01-19 10:36:00,
2013-01-19 04:37:00,34.5,30.5,29.84,West,259,0.0,9.0,85,0.00,,,0.00,Wunderground v.1.15,2013-01-19 10:37:00,
2013-01-19 04:41:00,34.4,30.6,29.83,West,259,0.0,9.0,86,0.00,,,0.00,Wunderground v.1.15,2013-01-19 10:41:00,
2013-01-19 04:42:00,34.3,30.5,29.84,West,259,0.0,9.0,86,0.00,,,0.00,Wunderground v.1.15,2013-01-19 10:42:00,
2013-01-19 04:44:00,34.3,30.5,29.83,West,259,0.0,9.0,86,0.00,,,0.00,Wunderground v.1.15,2013-01-19 10:44:00,
2013-01-19 04:46:00,34.3,30.5,29.83,West,259,1.0,9.0,86,0.00,,,0.00,Wunderground v.1.15,2013-01-19 10:46:00,
2013-01-19 04:47:00,34.3,30.5,29.83,WSW,246,1.0,9.0,86,0.00,,,0.00,Wunderground v.1.15,2013-01-19 10:47:00,
2013-01-19 04:48:00,34.3,30.5,29.83,WSW,246,1.0,9.0,86,0.00,,,0.00,Wunderground v.1.15,2013-01-19 10:48:00,
2013-01-19 04:51:00,34.3,30.5,29.83,SW,231,1.0,9.0,86,0.00,,,0.00,Wunderground v.1.15,2013-01-19 10:51:00,
2013-01-19 04:54:00,34.2,31.0,29.84,SW,231,1.0,-999.0,86,-99.99,,,0.00,weatherlink.com 1.10,2013-01-19 10:54:00,
2013-01-19 04:55:00,34.2,30.4,29.83,SW,231,1.0,9.0,86,0.00,,,0.00,Wunderground v.1.15,2013-01-19 10:55:00,
2013-01-19 05:00:00,34.2,30.4,29.83,SW,231,1.0,1.0,86,0.00,,,0.00,Wunderground v.1.15,2013-01-19 11:00:00,
2013-01-19 05:02:00,34.2,30.4,29.83,SW,231,1.0,1.0,86,0.00,,,0.00,Wunderground v.1.15,2013-01-19 11:02:00,
2013-01-19 05:04:00,34.2,30.4,29.83,SW,231,1.0,1.0,86,0.00,,,0.00,Wunderground v.1.15,2013-01-19 11:04:00,
2013-01-19 05:06:00,34.2,30.4,29.83,SW,231,0.0,1.0,86,0.00,,,0.00,Wunderground v.1.15,2013-01-19 11:06:00,
2013-01-19 05:07:00,34.2,30.4,29.83,SW,231,0.0,1.0,86,0.00,,,0.00,Wunderground v.1.15,2013-01-19 11:07:00,
2013-01-19 05:10:00,34.2,31.0,29.83,SW,229,1.0,-999.0,86,-99.99,,,0.00,weatherlink.com 1.10,2013-01-19 11:10:00,
2013-01-19 05:12:00,34.2,30.4,29.83,SW,224,1.0,2.0,86,0.00,,,0.00,Wunderground v.1.15,2013-01-19 11:12:00,
2013-01-19 05:13:00,34.1,30.4,29.83,SW,224,1.0,2.0,86,0.00,,,0.00,Wunderground v.1.15,2013-01-19 11:13:00,
2013-01-19 06:48:00,34.0,30.5,29.81,South,189,2.0,6.0,87,0.00,,,0.00,Wunderground v.1.15,2013-01-19 12:48:00,
2013-01-19 06:51:00,34.0,30.5,29.81,South,190,2.0,6.0,87,0.00,,,0.00,Wunderground v.1.15,2013-01-19 12:51:00,
2013-01-19 06:52:00,34.0,30.5,29.81,South,190,2.0,6.0,87,0.00,,,0.00,Wunderground v.1.15,2013-01-19 12:52:00,
2013-01-19 06:53:00,34.0,30.5,29.81,South,190,2.0,6.0,87,0.00,,,0.00,Wunderground v.1.15,2013-01-19 12:53:00,
2013-01-19 06:55:00,34.1,30.6,29.81,South,190,2.0,6.0,87,0.00,,,0.00,Wunderground v.1.15,2013-01-19 12:55:00,
2013-01-19 06:57:00,34.1,30.6,29.80,South,190,2.0,3.0,87,0.00,,,0.00,Wunderground v.1.15,2013-01-19 12:57:00,
2013-01-19 07:01:00,34.4,30.9,29.81,South,191,3.0,4.0,87,0.00,,,0.00,Wunderground v.1.15,2013-01-19 13:01:00,
2013-01-19 07:02:00,34.4,30.9,29.81,South,191,3.0,4.0,87,0.00,,,0.00,Wunderground v.1.15,2013-01-19 13:02:00,
2013-01-19 07:07:00,34.5,31.0,29.81,South,191,2.0,2.0,87,0.00,,,0.00,Wunderground v.1.15,2013-01-19 13:07:00,
2013-01-19 07:08:00,34.5,31.0,29.80,South,191,2.0,3.0,87,0.00,,,0.00,Wunderground v.1.15,2013-01-19 13:08:00,
2013-01-19 07:12:00,34.6,31.1,29.80,South,191,2.0,3.0,87,0.00,,,0.00,Wunderground v.1.15,2013-01-19 13:12:00,
2013-01-19 07:13:00,34.6,31.1,29.80,South,191,2.0,3.0,87,0.00,,,0.00,Wunderground v.1.15,2013-01-19 13:13:00,
2013-01-19 07:14:00,34.6,31.1,29.80,South,191,2.0,3.0,87,0.00,,,0.00,Wunderground v.1.15,2013-01-19 13:14:00,
2013-01-19 07:16:00,34.5,31.0,29.79,SSW,192,2.0,2.0,87,0.00,,,0.00,Wunderground v.1.15,2013-01-19 13:16:00,
2013-01-19 07:20:00,34.4,30.6,29.79,SSW,192,2.0,3.0,86,0.00,,,0.00,Wunderground v.1.15,2013-01-19 13:20:00,
2013-01-19 07:21:00,34.4,30.6,29.79,SSW,193,2.0,3.0,86,0.00,,,0.00,Wunderground v.1.15,2013-01-19 13:21:00,
2013-01-19 07:24:00,34.3,31.0,29.79,SSW,193,1.0,-999.0,87,-99.99,,,0.00,weatherlink.com 1.10,2013-01-19 13:24:00,
2013-01-19 07:26:00,34.3,30.8,29.79,SSW,194,2.0,4.0,87,0.00,,,0.00,Wunderground v.1.15,2013-01-19 13:26:00,
2013-01-19 07:28:00,34.2,30.7,29.80,SSW,196,2.0,6.0,87,0.00,,,0.00,Wunderground v.1.15,2013-01-19 13:28:00,
2013-01-19 07:29:00,34.2,30.7,29.80,SSW,197,2.0,6.0,87,0.00,,,0.00,Wunderground v.1.15,2013-01-19 13:29:00,
2013-01-19 07:33:00,34.2,30.7,29.80,SSW,198,3.0,6.0,87,0.00,,,0.00,Wunderground v.1.15,2013-01-19 13:33:00,
2013-01-19 07:35:00,34.1,30.6,29.80,SSW,198,3.0,6.0,87,0.00,,,0.00,Wunderground v.1.15,2013-01-19 13:35:00,
2013-01-19 07:37:00,34.1,30.6,29.80,SSW,198,2.0,6.0,87,0.00,,,0.00,Wunderground v.1.15,2013-01-19 13:37:00,
2013-01-19 07:38:00,34.1,30.6,29.80,SSW,198,2.0,6.0,87,0.00,,,0.00,Wunderground v.1.15,2013-01-19 13:38:00,
2013-01-19 07:40:00,34.1,30.6,29.79,SSW,198,2.0,6.0,87,0.00,,,0.00,Wunderground v.1.15,2013-01-19 13:40:00,
2013-01-19 07:42:00,34.1,30.6,29.79,SSW,196,2.0,6.0,87,0.00,,,0.00,Wunderground v.1.15,2013-01-19 13:42:00,
2013-01-19 07:44:00,34.1,30.6,29.79,SSW,196,2.0,6.0,87,0.00,,,0.00,Wunderground v.1.15,2013-01-19 13:44:00,
2013-01-19 07:46:00,34.2,30.7,29.79,SSW,196,1.0,6.0,87,0.00,,,0.00,Wunderground v.1.15,2013-01-19 13:46:00,
2013-01-19 07:47:00,34.2,30.7,29.79,South,188,1.0,6.0,87,0.00,,,0.00,Wunderground v.1.15,2013-01-19 13:47:00,
2013-01-19 07:52:00,34.3,30.8,29.79,South,190,2.0,6.0,87,0.00,,,0.00,Wunderground v.1.15,2013-01-19 13:52:00,
2013-01-19 07:53:00,34.3,30.8,29.79,SSW,192,2.0,6.0,87,0.00,,,0.00,Wunderground v.1.15,2013-01-19 13:53:00,
2013-01-19 07:54:00,34.3,30.8,29.79,South,191,2.0,6.0,87,0.00,,,0.00,Wunderground v.1.15,2013-01-19 13:54:00,
2013-01-19 07:59:00,34.4,30.9,29.79,SSW,195,2.0,3.0,87,0.00,,,0.00,Wunderground v.1.15,2013-01-19 13:59:00,
2013-01-19 08:00:00,34.4,30.9,29.79,SSW,195,2.0,3.0,87,0.00,,,0.00,Wunderground v.1.15,2013-01-19 14:00:00,
2013-01-19 08:04:00,34.4,30.9,29.79,SSW,196,2.0,3.0,87,0.00,,,0.00,Wunderground v.1.15,2013-01-19 14:04:00,
2013-01-19 08:06:00,34.4,30.9,29.80,SSW,196,2.0,2.0,87,0.00,,,0.00,Wunderground v.1.15,2013-01-19 14:06:00,
2013-01-19 08:09:00,34.3,30.8,29.80,SSW,196,2.0,3.0,87,0.00,,,0.00,Wunderground v.1.15,2013-01-19 14:09:00,
2013-01-19 08:10:00,34.4,30.9,29.80,SSW,196,2.0,5.0,87,0.00,,,0.00,Wunderground v.1.15,2013-01-19 14:10:00,
2013-01-19 08:12:00,34.4,30.9,29.79,SSW,196,2.0,5.0,87,0.00,,,0.00,Wunderground v.1.15,2013-01-19 14:12:00,
2013-01-19 08:13:00,34.4,30.9,29.79,SSW,196,2.0,5.0,87,0.00,,,0.00,Wunderground v.1.15,2013-01-19 14:13:00,
2013-01-19 08:16:00,34.4,30.9,29.79,SSW,197,2.0,2.0,87,0.00,,,0.00,Wunderground v.1.15,2013-01-19 14:16:00,
2013-01-19 08:18:00,34.5,31.0,29.79,SSW,197,2.0,3.0,87,0.00,,,0.00,Wunderground v.1.15,2013-01-19 14:18:00,
2013-01-19 08:21:00,34.6,31.1,29.79,SSW,200,2.0,3.0,87,0.00,,,0.00,Wunderground v.1.15,2013-01-19 14:21:00,
2013-01-19 08:22:00,34.7,31.2,29.79,South,182,2.0,3.0,87,0.00,,,0.00,Wunderground v.1.15,2013-01-19 14:22:00,
2013-01-19 08:23:00,34.7,31.2,29.79,South,170,2.0,4.0,87,0.00,,,0.00,Wunderground v.1.15,2013-01-19 14:23:00,
2013-01-19 08:27:00,34.8,31.3,29.78,South,171,3.0,5.0,87,0.00,,,0.00,Wunderground v.1.15,2013-01-19 14:27:00,
2013-01-19 08:28:00,34.8,31.0,29.78,South,174,3.0,5.0,86,0.00,,,0.00,Wunderground v.1.15,2013-01-19 14:28:00,
2013-01-19 08:33:00,34.9,31.1,29.77,South,185,3.0,7.0,86,0.00,,,0.00,Wunderground v.1.15,2013-01-19 14:33:00,
2013-01-19 08:34:00,34.9,31.1,29.78,South,178,3.0,7.0,86,0.00,,,0.00,Wunderground v.1.15,2013-01-19 14:34:00,
2013-01-19 08:37:00,34.8,31.0,29.77,South,178,3.0,5.0,86,0.00,,,0.00,Wunderground v.1.15,2013-01-19 14:37:00,
2013-01-19 08:39:00,34.8,31.0,29.77,South,178,5.0,-999.0,86,-99.99,,,0.00,weatherlink.com 1.10,2013-01-19 14:39:00,
2013-01-19 08:42:00,34.8,31.0,29.77,South,171,4.0,5.0,86,0.00,,,0.00,Wunderground v.1.15,2013-01-19 14:42:00,
2013-01-19 08:45:00,34.8,31.0,29.76,SW,217,3.0,5.0,86,0.00,,,0.00,Wunderground v.1.15,2013-01-19 14:45:00,
2013-01-19 08:47:00,34.8,31.3,29.76,SSE,165,3.0,5.0,87,0.00,,,0.00,Wunderground v.1.15,2013-01-19 14:47:00,
2013-01-19 08:48:00,34.8,31.3,29.76,SSE,161,3.0,5.0,87,0.00,,,0.00,Wunderground v.1.15,2013-01-19 14:48:00,
2013-01-19 08:50:00,34.7,31.2,29.77,SW,214,3.0,7.0,87,0.00,,,0.00,Wunderground v.1.15,2013-01-19 14:50:00,
2013-01-19 08:53:00,34.8,31.3,29.78,SSW,202,4.0,7.0,87,0.00,,,0.00,Wunderground v.1.15,2013-01-19 14:53:00,
2013-01-19 08:54:00,34.8,31.3,29.77,South,185,4.0,7.0,87,0.00,,,0.00,Wunderground v.1.15,2013-01-19 14:54:00,
2013-01-19 08:57:00,34.8,31.3,29.77,South,188,4.0,4.0,87,0.00,,,0.00,Wunderground v.1.15,2013-01-19 14:57:00,
2013-01-19 09:01:00,34.8,31.3,29.78,South,188,2.0,4.0,87,0.00,,,0.00,Wunderground v.1.15,2013-01-19 15:01:00,
2013-01-19 09:02:00,34.8,31.3,29.78,South,188,2.0,4.0,87,0.00,,,0.00,Wunderground v.1.15,2013-01-19 15:02:00,
2013-01-19 09:03:00,34.9,31.4,29.78,South,188,1.0,4.0,87,0.00,,,0.00,Wunderground v.1.15,2013-01-19 15:03:00,
2013-01-19 09:04:00,34.9,31.4,29.77,South,188,1.0,4.0,87,0.00,,,0.00,Wunderground v.1.15,2013-01-19 15:04:00,
2013-01-19 09:08:00,35.0,31.2,29.78,South,191,1.0,2.0,86,0.00,,,0.00,Wunderground v.1.15,2013-01-19 15:08:00,
2013-01-19 09:09:00,35.1,31.0,29.78,South,191,1.0,-999.0,86,-99.99,,,0.00,weatherlink.com 1.10,2013-01-19 15:09:00,
2013-01-19 09:10:00,35.1,31.3,29.77,South,191,1.0,2.0,86,0.00,,,0.00,Wunderground v.1.15,2013-01-19 15:10:00,
2013-01-19 09:15:00,35.5,31.7,29.77,South,188,2.0,3.0,86,0.00,,,0.00,Wunderground v.1.15,2013-01-19 15:15:00,
2013-01-19 09:16:00,35.6,31.8,29.77,SSW,204,2.0,3.0,86,0.00,,,0.00,Wunderground v.1.15,2013-01-19 15:16:00,
2013-01-19 09:20:00,35.8,31.7,29.77,SSW,211,3.0,5.0,85,0.00,,,0.00,Wunderground v.1.15,2013-01-19 15:20:00,
2013-01-19 09:21:00,35.8,31.7,29.77,SSW,198,3.0,5.0,85,0.00,,,0.00,Wunderground v.1.15,2013-01-19 15:21:00,
2013-01-19 09:23:00,35.9,31.8,29.77,SSW,198,4.0,5.0,85,0.00,,,0.00,Wunderground v.1.15,2013-01-19 15:23:00,
2013-01-19 09:27:00,35.9,31.5,29.77,South,177,4.0,9.0,84,0.00,,,0.00,Wunderground v.1.15,2013-01-19 15:27:00,
2013-01-19 09:28:00,35.9,31.5,29.77,SSW,200,4.0,9.0,84,0.00,,,0.00,Wunderground v.1.15,2013-01-19 15:28:00,
2013-01-19 09:29:00,35.9,31.5,29.77,SSW,202,4.0,9.0,84,0.00,,,0.00,Wunderground v.1.15,2013-01-19 15:29:00,
2013-01-19 09:31:00,35.9,31.5,29.76,SSW,200,4.0,9.0,84,0.00,,,0.00,Wunderground v.1.15,2013-01-19 15:31:00,
2013-01-19 09:34:00,36.0,31.6,29.76,SSW,195,4.0,9.0,84,0.00,,,0.00,Wunderground v.1.15,2013-01-19 15:34:00,
2013-01-19 09:36:00,36.0,31.6,29.76,SSW,196,4.0,4.0,84,0.00,,,0.00,Wunderground v.1.15,2013-01-19 15:36:00,
2013-01-19 09:39:00,36.0,32.0,29.76,SSW,202,2.0,-999.0,84,-99.99,,,0.00,weatherlink.com 1.10,2013-01-19 15:39:00,
2013-01-19 09:40:00,36.0,31.6,29.76,SSW,202,4.0,9.0,84,0.00,,,0.00,Wunderground v.1.15,2013-01-19 15:40:00,
2013-01-19 09:43:00,36.1,31.7,29.76,SSW,197,3.0,9.0,84,0.00,,,0.00,Wunderground v.1.15,2013-01-19 15:43:00,
2013-01-19 09:44:00,36.1,31.7,29.76,SSW,203,3.0,9.0,84,0.00,,,0.00,Wunderground v.1.15,2013-01-19 15:44:00,
2013-01-19 09:46:00,36.2,31.8,29.76,SSW,200,4.0,4.0,84,0.00,,,0.00,Wunderground v.1.15,2013-01-19 15:46:00,
2013-01-19 09:47:00,36.2,31.8,29.76,SW,217,4.0,5.0,84,0.00,,,0.00,Wunderground v.1.15,2013-01-19 15:47:00,
2013-01-19 09:52:00,36.4,32.0,29.76,SW,217,4.0,9.0,84,0.00,,,0.00,Wunderground v.1.15,2013-01-19 15:52:00,
2013-01-19 09:53:00,36.4,31.7,29.76,WSW,245,4.0,9.0,83,0.00,,,0.00,Wunderground v.1.15,2013-01-19 15:53:00,
2013-01-19 09:55:00,36.5,32.0,29.75,SW,221,4.0,-999.0,83,-99.99,,,0.00,weatherlink.com 1.10,2013-01-19 15:55:00,
2013-01-19 09:58:00,36.6,31.9,29.75,SW,235,4.0,4.0,83,0.00,,,0.00,Wunderground v.1.15,2013-01-19 15:58:00,
2013-01-19 10:01:00,36.6,31.9,29.75,SSW,202,4.0,4.0,83,0.00,,,0.00,Wunderground v.1.15,2013-01-19 16:01:00,
2013-01-19 10:02:00,36.7,32.0,29.75,SSW,213,4.0,8.0,83,0.00,,,0.00,Wunderground v.1.15,2013-01-19 16:02:00,
2013-01-19 10:06:00,36.6,31.9,29.75,SW,219,5.0,5.0,83,0.00,,,0.00,Wunderground v.1.15,2013-01-19 16:06:00,
2013-01-19 10:07:00,36.6,31.9,29.75,SSW,207,5.0,5.0,83,0.00,,,0.00,Wunderground v.1.15,2013-01-19 16:07:00,
2013-01-19 10:08:00,36.6,31.9,29.75,SW,223,5.0,6.0,83,0.00,,,0.00,Wunderground v.1.15,2013-01-19 16:08:00,
2013-01-19 10:12:00,36.6,31.9,29.74,SW,220,5.0,8.0,83,0.00,,,0.00,Wunderground v.1.15,2013-01-19 16:12:00,
2013-01-19 10:13:00,36.6,31.9,29.74,WSW,252,5.0,8.0,83,0.00,,,0.00,Wunderground v.1.15,2013-01-19 16:13:00,
2013-01-19 10:14:00,36.6,31.9,29.74,SW,221,5.0,8.0,83,0.00,,,0.00,Wunderground v.1.15,2013-01-19 16:14:00,
2013-01-19 10:15:00,36.6,31.9,29.74,SW,217,4.0,8.0,83,0.00,,,0.00,Wunderground v.1.15,2013-01-19 16:15:00,
2013-01-19 10:19:00,36.7,32.0,29.74,SSW,204,4.0,5.0,83,0.00,,,0.00,Wunderground v.1.15,2013-01-19 16:19:00,
2013-01-19 10:20:00,36.7,32.0,29.74,SSW,213,4.0,6.0,83,0.00,,,0.00,Wunderground v.1.15,2013-01-19 16:20:00,
2013-01-19 10:23:00,36.8,32.1,29.74,WSW,240,4.0,6.0,83,0.00,,,0.00,Wunderground v.1.15,2013-01-19 16:23:00,
2013-01-19 10:25:00,36.8,32.1,29.74,SW,236,4.0,6.0,83,0.00,,,0.00,Wunderground v.1.15,2013-01-19 16:25:00,
2013-01-19 10:26:00,36.9,32.2,29.74,WSW,240,4.0,4.0,83,0.00,,,0.00,Wunderground v.1.15,2013-01-19 16:26:00,
2013-01-19 10:28:00,36.9,32.2,29.74,WSW,247,4.0,11.0,83,0.00,,,0.00,Wunderground v.1.15,2013-01-19 16:28:00,
2013-01-19 10:30:00,36.9,32.2,29.74,SW,233,5.0,11.0,83,0.00,,,0.00,Wunderground v.1.15,2013-01-19 16:30:00,
2013-01-19 10:32:00,37.0,32.3,29.74,SE,145,4.0,11.0,83,0.00,,,0.00,Wunderground v.1.15,2013-01-19 16:32:00,
2013-01-19 10:34:00,37.1,32.4,29.74,SW,220,4.0,11.0,83,0.00,,,0.00,Wunderground v.1.15,2013-01-19 16:34:00,
2013-01-19 10:36:00,37.3,32.6,29.73,WSW,251,4.0,11.0,83,0.00,,,0.00,Wunderground v.1.15,2013-01-19 16:36:00,
2013-01-19 10:37:00,37.4,32.4,29.73,WSW,243,4.0,11.0,82,0.00,,,0.00,Wunderground v.1.15,2013-01-19 16:37:00,
2013-01-19 10:40:00,37.7,32.7,29.73,WSW,253,5.0,11.0,82,0.00,,,0.00,Wunderground v.1.15,2013-01-19 16:40:00,
2013-01-19 10:41:00,37.7,32.7,29.73,SW,225,5.0,11.0,82,0.00,,,0.00,Wunderground v.1.15,2013-01-19 16:41:00,
2013-01-19 10:42:00,37.8,32.5,29.73,WSW,238,5.0,11.0,81,0.00,,,0.00,Wunderground v.1.15,2013-01-19 16:42:00,
2013-01-19 10:44:00,37.9,32.6,29.73,SSW,210,6.0,11.0,81,0.00,,,0.00,Wunderground v.1.15,2013-01-19 16:44:00,
2013-01-19 10:47:00,38.0,32.7,29.73,SW,218,7.0,11.0,81,0.00,,,0.00,Wunderground v.1.15,2013-01-19 16:47:00,
2013-01-19 10:51:00,38.3,33.0,29.72,SW,230,6.0,11.0,81,0.00,,,0.00,Wunderground v.1.15,2013-01-19 16:51:00,
2013-01-19 10:52:00,38.3,32.7,29.73,WSW,241,6.0,11.0,80,0.00,,,0.00,Wunderground v.1.15,2013-01-19 16:52:00,
2013-01-19 10:53:00,38.3,32.7,29.73,West,262,6.0,11.0,80,0.00,,,0.00,Wunderground v.1.15,2013-01-19 16:53:00,
2013-01-19 10:54:00,38.3,32.7,29.73,WSW,252,6.0,11.0,80,0.00,,,0.00,Wunderground v.1.15,2013-01-19 16:54:00,
2013-01-19 10:57:00,38.5,32.9,29.72,SW,229,6.0,6.0,80,0.00,,,0.00,Wunderground v.1.15,2013-01-19 16:57:00,
2013-01-19 10:59:00,38.6,33.0,29.72,SW,223,6.0,6.0,80,0.00,,,0.00,Wunderground v.1.15,2013-01-19 16:59:00,
2013-01-19 11:01:00,38.7,33.1,29.72,WSW,249,6.0,6.0,80,0.00,,,0.00,Wunderground v.1.15,2013-01-19 17:01:00,
2013-01-19 11:02:00,38.8,33.2,29.72,West,262,6.0,7.0,80,0.00,,,0.00,Wunderground v.1.15,2013-01-19 17:02:00,
2013-01-19 11:03:00,38.9,32.9,29.72,WSW,238,5.0,7.0,79,0.00,,,0.00,Wunderground v.1.15,2013-01-19 17:03:00,
2013-01-19 11:06:00,39.3,33.6,29.72,SSW,212,5.0,5.0,80,0.00,,,0.00,Wunderground v.1.15,2013-01-19 17:06:00,
2013-01-19 11:07:00,39.6,33.9,29.72,WSW,250,5.0,6.0,80,0.00,,,0.00,Wunderground v.1.15,2013-01-19 17:07:00,
2013-01-19 11:12:00,40.4,33.8,29.71,West,259,5.0,6.0,77,0.00,,,0.00,Wunderground v.1.15,2013-01-19 17:12:00,
2013-01-19 11:14:00,40.7,34.0,29.71,WSW,252,5.0,8.0,77,0.00,,,0.00,Wunderground v.1.15,2013-01-19 17:14:00,
2013-01-19 11:18:00,41.3,34.3,29.71,SW,231,5.0,7.0,76,0.00,,,0.00,Wunderground v.1.15,2013-01-19 17:18:00,
2013-01-19 11:20:00,41.7,34.0,29.70,WSW,242,5.0,9.0,74,0.00,,,0.00,Wunderground v.1.15,2013-01-19 17:20:00,
2013-01-19 11:24:00,41.3,33.0,29.70,WSW,249,6.0,-999.0,73,-99.99,,,0.00,weatherlink.com 1.10,2013-01-19 17:24:00,
2013-01-19 11:30:00,41.8,33.8,29.70,WSW,250,8.0,14.0,73,0.00,,,0.00,Wunderground v.1.15,2013-01-19 17:30:00,
2013-01-19 11:31:00,41.8,33.4,29.70,WSW,243,8.0,14.0,72,0.00,,,0.00,Wunderground v.1.15,2013-01-19 17:31:00,
2013-01-19 11:35:00,41.9,33.5,29.70,West,261,7.0,14.0,72,0.00,,,0.00,Wunderground v.1.15,2013-01-19 17:35:00,
2013-01-19 11:41:00,42.3,33.6,29.69,WSW,242,6.0,14.0,71,0.00,,,0.00,Wunderground v.1.15,2013-01-19 17:41:00,
2013-01-19 11:42:00,42.4,33.7,29.69,WSW,240,6.0,14.0,71,0.00,,,0.00,Wunderground v.1.15,2013-01-19 17:42:00,
2013-01-19 11:46:00,42.8,33.7,29.69,SW,230,7.0,14.0,70,0.00,,,0.00,Wunderground v.1.15,2013-01-19 17:46:00,
2013-01-19 11:50:00,43.1,33.6,29.68,WSW,247,8.0,14.0,69,0.00,,,0.00,Wunderground v.1.15,2013-01-19 17:50:00,
2013-01-19 11:54:00,42.8,33.3,29.68,WSW,252,8.0,14.0,69,0.00,,,0.00,Wunderground v.1.15,2013-01-19 17:54:00,
2013-01-19 11:57:00,42.6,33.1,29.68,SW,232,9.0,9.0,69,0.00,,,0.00,Wunderground v.1.15,2013-01-19 17:57:00,
2013-01-19 11:59:00,42.9,33.4,29.68,WSW,252,9.0,9.0,69,0.00,,,0.00,Wunderground v.1.15,2013-01-19 17:59:00,
2013-01-19 12:02:00,43.1,33.3,29.68,WSW,242,9.0,10.0,68,0.00,,,0.00,Wunderground v.1.15,2013-01-19 18:02:00,
2013-01-19 12:05:00,43.3,33.4,29.67,WSW,257,8.0,10.0,68,0.00,,,0.00,Wunderground v.1.15,2013-01-19 18:05:00,
2013-01-19 12:07:00,43.5,33.6,29.67,West,259,8.0,8.0,68,0.00,,,0.00,Wunderground v.1.15,2013-01-19 18:07:00,
2013-01-19 12:10:00,43.6,33.0,29.67,WSW,246,6.0,-999.0,67,-99.99,,,0.00,weatherlink.com 1.10,2013-01-19 18:10:00,
2013-01-19 12:13:00,43.4,33.2,29.67,West,265,8.0,10.0,67,0.00,,,0.00,Wunderground v.1.15,2013-01-19 18:13:00,
2013-01-19 12:16:00,43.4,33.2,29.67,WSW,253,9.0,9.0,67,0.00,,,0.00,Wunderground v.1.15,2013-01-19 18:16:00,
2013-01-19 12:20:00,44.1,33.8,29.67,WSW,257,9.0,11.0,67,0.00,,,0.00,Wunderground v.1.15,2013-01-19 18:20:00,
2013-01-19 12:21:00,44.3,33.7,29.66,WSW,240,9.0,11.0,66,0.00,,,0.00,Wunderground v.1.15,2013-01-19 18:21:00,
2013-01-19 12:27:00,44.2,33.6,29.67,WSW,254,9.0,9.0,66,0.00,,,0.00,Wunderground v.1.15,2013-01-19 18:27:00,
2013-01-19 12:28:00,44.2,33.6,29.67,WSW,246,9.0,14.0,66,0.00,,,0.00,Wunderground v.1.15,2013-01-19 18:28:00,
2013-01-19 12:33:00,44.6,33.6,29.66,West,260,9.0,14.0,65,0.00,,,0.00,Wunderground v.1.15,2013-01-19 18:33:00,
2013-01-19 12:34:00,44.8,33.7,29.66,West,264,9.0,14.0,65,0.00,,,0.00,Wunderground v.1.15,2013-01-19 18:34:00,
2013-01-19 12:40:00,45.2,34.0,29.66,WSW,246,10.0,-999.0,64,-99.99,,,0.00,weatherlink.com 1.10,2013-01-19 18:40:00,
2013-01-19 12:45:00,45.5,33.2,29.66,WSW,253,9.0,14.0,62,0.00,,,0.00,Wunderground v.1.15,2013-01-19 18:45:00,
2013-01-19 12:48:00,45.7,33.4,29.65,WSW,253,9.0,15.0,62,0.00,,,0.00,Wunderground v.1.15,2013-01-19 18:48:00,
2013-01-19 12:50:00,45.7,33.4,29.65,WSW,248,10.0,15.0,62,0.00,,,0.00,Wunderground v.1.15,2013-01-19 18:50:00,
2013-01-19 12:57:00,45.6,33.3,29.65,West,271,10.0,10.0,62,0.00,,,0.00,Wunderground v.1.15,2013-01-19 18:57:00,
2013-01-19 13:02:00,45.7,33.4,29.65,West,265,9.0,13.0,62,0.00,,,0.00,Wunderground v.1.15,2013-01-19 19:02:00,
2013-01-19 13:06:00,45.2,33.3,29.65,WSW,255,8.0,8.0,63,0.00,,,0.00,Wunderground v.1.15,2013-01-19 19:06:00,
2013-01-19 13:07:00,45.1,33.6,29.65,West,274,8.0,8.0,64,0.00,,,0.00,Wunderground v.1.15,2013-01-19 19:07:00,
2013-01-19 13:13:00,45.5,33.6,29.65,WSW,244,9.0,12.0,63,0.00,,,0.00,Wunderground v.1.15,2013-01-19 19:13:00,
2013-01-19 13:16:00,45.9,34.0,29.65,WSW,250,9.0,9.0,63,0.00,,,0.00,Wunderground v.1.15,2013-01-19 19:16:00,
2013-01-19 13:20:00,45.7,33.4,29.65,West,263,9.0,10.0,62,0.00,,,0.00,Wunderground v.1.15,2013-01-19 19:20:00,
2013-01-19 13:21:00,45.5,33.2,29.65,WSW,252,9.0,10.0,62,0.00,,,0.00,Wunderground v.1.15,2013-01-19 19:21:00,
2013-01-19 13:27:00,45.3,33.4,29.65,WSW,246,10.0,10.0,63,0.00,,,0.00,Wunderground v.1.15,2013-01-19 19:27:00,
2013-01-19 13:28:00,45.2,33.3,29.65,WSW,243,9.0,13.0,63,0.00,,,0.00,Wunderground v.1.15,2013-01-19 19:28:00,
2013-01-19 13:33:00,45.4,33.5,29.65,SSW,213,9.0,17.0,63,0.00,,,0.00,Wunderground v.1.15,2013-01-19 19:33:00,
2013-01-19 13:38:00,45.4,33.5,29.64,WSW,244,8.0,17.0,63,0.00,,,0.00,Wunderground v.1.15,2013-01-19 19:38:00,
2013-01-19 13:39:00,45.5,33.6,29.64,WSW,239,8.0,17.0,63,0.00,,,0.00,Wunderground v.1.15,2013-01-19 19:39:00,
2013-01-19 13:45:00,45.4,33.1,29.65,WSW,254,8.0,17.0,62,0.00,,,0.00,Wunderground v.1.15,2013-01-19 19:45:00,
2013-01-19 13:50:00,45.1,32.8,29.64,WSW,252,9.0,17.0,62,0.00,,,0.00,Wunderground v.1.15,2013-01-19 19:50:00,
2013-01-19 13:52:00,45.0,32.8,29.64,WSW,238,10.0,17.0,62,0.00,,,0.00,Wunderground v.1.15,2013-01-19 19:52:00,
2013-01-19 13:57:00,44.8,32.6,29.64,WSW,249,10.0,11.0,62,0.00,,,0.00,Wunderground v.1.15,2013-01-19 19:57:00,
2013-01-19 14:02:00,44.8,33.0,29.64,West,265,11.0,15.0,63,0.00,,,0.00,Wunderground v.1.15,2013-01-19 20:02:00,
2013-01-19 14:03:00,44.8,32.6,29.64,WSW,238,12.0,15.0,62,0.00,,,0.00,Wunderground v.1.15,2013-01-19 20:03:00,
2013-01-19 14:09:00,44.7,32.9,29.64,SW,234,11.0,13.0,63,0.00,,,0.00,Wunderground v.1.15,2013-01-19 20:09:00,
2013-01-19 14:13:00,44.7,32.9,29.64,West,270,10.0,13.0,63,0.00,,,0.00,Wunderground v.1.15,2013-01-19 20:13:00,
2013-01-19 14:15:00,45.0,33.2,29.64,WNW,292,10.0,13.0,63,0.00,,,0.00,Wunderground v.1.15,2013-01-19 20:15:00,
2013-01-19 14:22:00,45.1,33.2,29.64,WSW,250,8.0,15.0,63,0.00,,,0.00,Wunderground v.1.15,2013-01-19 20:22:00,
2013-01-19 14:27:00,44.9,33.5,29.64,WSW,240,8.0,10.0,64,0.00,,,0.00,Wunderground v.1.15,2013-01-19 20:27:00,
2013-01-19 14:28:00,44.8,33.4,29.64,WSW,239,9.0,17.0,64,0.00,,,0.00,Wunderground v.1.15,2013-01-19 20:28:00,
2013-01-19 14:34:00,44.9,33.5,29.64,WSW,244,8.0,17.0,64,0.00,,,0.00,Wunderground v.1.15,2013-01-19 20:34:00,
2013-01-19 14:39:00,44.7,33.3,29.64,West,261,8.0,17.0,64,0.00,,,0.00,Wunderground v.1.15,2013-01-19 20:39:00,
2013-01-19 14:41:00,44.6,33.2,29.64,WSW,245,8.0,17.0,64,0.00,,,0.00,Wunderground v.1.15,2013-01-19 20:41:00,
2013-01-19 14:47:00,44.5,33.5,29.64,WSW,238,8.0,17.0,65,0.00,,,0.00,Wunderground v.1.15,2013-01-19 20:47:00,
2013-01-19 14:48:00,44.5,33.5,29.64,West,271,8.0,17.0,65,0.00,,,0.00,Wunderground v.1.15,2013-01-19 20:48:00,
2013-01-19 14:54:00,44.2,33.2,29.63,WSW,253,9.0,17.0,65,0.00,,,0.00,Wunderground v.1.15,2013-01-19 20:54:00,
2013-01-19 14:57:00,44.1,33.1,29.63,WSW,248,9.0,9.0,65,0.00,,,0.00,Wunderground v.1.15,2013-01-19 20:57:00,
2013-01-19 15:02:00,44.0,32.6,29.63,WSW,248,9.0,17.0,64,0.00,,,0.00,Wunderground v.1.15,2013-01-19 21:02:00,
2013-01-19 15:04:00,44.1,32.7,29.63,WSW,240,10.0,17.0,64,0.00,,,0.00,Wunderground v.1.15,2013-01-19 21:04:00,
2013-01-19 15:07:00,44.1,32.7,29.63,West,260,10.0,11.0,64,0.00,,,0.00,Wunderground v.1.15,2013-01-19 21:07:00,
2013-01-19 15:09:00,44.4,33.0,29.63,WSW,244,11.0,17.0,64,0.00,,,0.00,Wunderground v.1.15,2013-01-19 21:09:00,
2013-01-19 15:13:00,44.3,32.9,29.64,SW,226,10.0,17.0,64,0.00,,,0.00,Wunderground v.1.15,2013-01-19 21:13:00,
2013-01-19 15:14:00,44.2,32.8,29.64,WSW,252,10.0,17.0,64,0.00,,,0.00,Wunderground v.1.15,2013-01-19 21:14:00,
2013-01-19 15:20:00,43.8,32.8,29.64,WSW,255,11.0,17.0,65,0.00,,,0.00,Wunderground v.1.15,2013-01-19 21:20:00,
2013-01-19 15:22:00,43.7,32.7,29.64,West,261,11.0,17.0,65,0.00,,,0.00,Wunderground v.1.15,2013-01-19 21:22:00,
2013-01-19 15:30:00,43.6,33.0,29.64,SW,229,11.0,17.0,66,0.00,,,0.00,Wunderground v.1.15,2013-01-19 21:30:00,
2013-01-19 15:31:00,43.6,33.0,29.64,NW,313,11.0,17.0,66,0.00,,,0.00,Wunderground v.1.15,2013-01-19 21:31:00,
2013-01-19 15:36:00,43.5,32.9,29.65,West,267,10.0,10.0,66,0.00,,,0.00,Wunderground v.1.15,2013-01-19 21:36:00,
2013-01-19 15:40:00,43.3,33.1,29.65,WSW,242,10.0,17.0,67,0.00,,,0.00,Wunderground v.1.15,2013-01-19 21:40:00,
2013-01-19 15:45:00,43.2,33.0,29.65,WSW,240,10.0,17.0,67,0.00,,,0.00,Wunderground v.1.15,2013-01-19 21:45:00,
2013-01-19 15:48:00,43.1,32.9,29.65,WSW,241,9.0,17.0,67,0.00,,,0.00,Wunderground v.1.15,2013-01-19 21:48:00,
2013-01-19 15:52:00,43.2,33.3,29.65,SW,230,9.0,17.0,68,0.00,,,0.00,Wunderground v.1.15,2013-01-19 21:52:00,
2013-01-19 15:53:00,43.3,33.1,29.65,WSW,241,9.0,17.0,67,0.00,,,0.00,Wunderground v.1.15,2013-01-19 21:53:00,
2013-01-19 15:59:00,43.6,33.0,29.64,West,281,10.0,11.0,66,0.00,,,0.00,Wunderground v.1.15,2013-01-19 21:59:00,
2013-01-19 16:00:00,43.7,33.1,29.64,WSW,255,10.0,14.0,66,0.00,,,0.00,Wunderground v.1.15,2013-01-19 22:00:00,
2013-01-19 16:06:00,43.6,33.0,29.65,West,259,10.0,12.0,66,0.00,,,0.00,Wunderground v.1.15,2013-01-19 22:06:00,
2013-01-19 16:09:00,43.5,33.3,29.65,SW,231,11.0,13.0,67,0.00,,,0.00,Wunderground v.1.15,2013-01-19 22:09:00,
2013-01-19 16:13:00,43.3,33.1,29.65,West,276,10.0,13.0,67,0.00,,,0.00,Wunderground v.1.15,2013-01-19 22:13:00,
2013-01-19 16:15:00,43.1,32.9,29.66,West,261,9.0,13.0,67,0.00,,,0.00,Wunderground v.1.15,2013-01-19 22:15:00,
2013-01-19 16:18:00,43.0,32.4,29.66,West,259,8.0,13.0,66,0.00,,,0.00,Wunderground v.1.15,2013-01-19 22:18:00,
2013-01-19 16:23:00,43.0,32.0,29.66,WNW,286,8.0,13.0,65,0.00,,,0.00,Wunderground v.1.15,2013-01-19 22:23:00,
2013-01-19 16:24:00,43.0,32.0,29.66,West,274,8.0,13.0,65,0.00,,,0.00,Wunderground v.1.15,2013-01-19 22:24:00,
2013-01-19 16:28:00,43.2,31.8,29.66,SW,233,9.0,22.0,64,0.00,,,0.00,Wunderground v.1.15,2013-01-19 22:28:00,
2013-01-19 16:31:00,43.3,31.9,29.66,WSW,246,10.0,22.0,64,0.00,,,0.00,Wunderground v.1.15,2013-01-19 22:31:00,
2013-01-19 16:38:00,42.8,31.5,29.66,West,277,10.0,20.0,64,0.00,,,0.00,Wunderground v.1.15,2013-01-19 22:38:00,
2013-01-19 16:39:00,42.7,31.4,29.66,West,273,10.0,21.0,64,0.00,,,0.00,Wunderground v.1.15,2013-01-19 22:39:00,
2013-01-19 16:44:00,42.4,31.0,29.66,West,277,13.0,-999.0,65,-99.99,,,0.00,weatherlink.com 1.10,2013-01-19 22:44:00,
2013-01-19 16:49:00,42.3,31.4,29.66,West,266,8.0,20.0,65,0.00,,,0.00,Wunderground v.1.15,2013-01-19 22:49:00,
2013-01-19 16:50:00,42.3,31.4,29.66,WNW,298,8.0,20.0,65,0.00,,,0.00,Wunderground v.1.15,2013-01-19 22:50:00,
2013-01-19 16:54:00,42.2,31.3,29.66,West,265,8.0,20.0,65,0.00,,,0.00,Wunderground v.1.15,2013-01-19 22:54:00,
2013-01-19 16:55:00,42.2,31.6,29.66,SW,228,7.0,20.0,66,0.00,,,0.00,Wunderground v.1.15,2013-01-19 22:55:00,
2013-01-19 16:59:00,41.9,31.4,29.66,WNW,289,6.0,9.0,66,0.00,,,0.00,Wunderground v.1.15,2013-01-19 22:59:00,
2013-01-19 17:03:00,41.8,31.6,29.66,NW,323,4.0,9.0,67,0.00,,,0.00,Wunderground v.1.15,2013-01-19 23:03:00,
2013-01-19 17:08:00,41.8,30.9,29.67,West,272,7.0,13.0,65,0.00,,,0.00,Wunderground v.1.15,2013-01-19 23:08:00,
2013-01-19 17:09:00,41.7,30.8,29.67,NNW,339,7.0,13.0,65,0.00,,,0.00,Wunderground v.1.15,2013-01-19 23:09:00,
2013-01-19 17:14:00,41.5,31.0,29.67,NW,326,8.0,13.0,66,0.00,,,0.00,Wunderground v.1.15,2013-01-19 23:14:00,
2013-01-19 17:17:00,41.0,30.9,29.67,NW,309,7.0,7.0,67,0.00,,,0.00,Wunderground v.1.15,2013-01-19 23:17:00,
2013-01-19 17:24:00,40.1,30.7,29.67,NNW,331,6.0,12.0,69,0.00,,,0.00,Wunderground v.1.15,2013-01-19 23:24:00,
2013-01-19 17:25:00,40.0,30.6,29.67,West,263,5.0,12.0,69,0.00,,,0.00,Wunderground v.1.15,2013-01-19 23:25:00,
2013-01-19 17:31:00,39.7,30.7,29.67,WNW,283,5.0,24.0,70,0.00,,,0.00,Wunderground v.1.15,2013-01-19 23:31:00,
2013-01-19 17:36:00,39.7,30.0,29.67,West,273,7.0,24.0,68,0.00,,,0.00,Wunderground v.1.15,2013-01-19 23:36:00,
2013-01-19 17:37:00,39.8,29.7,29.67,WSW,248,8.0,24.0,67,0.00,,,0.00,Wunderground v.1.15,2013-01-19 23:37:00,
2013-01-19 17:42:00,39.9,29.0,29.67,WSW,240,10.0,-999.0,66,-99.99,,,0.00,weatherlink.com 1.10,2013-01-19 23:42:00,
2013-01-19 17:44:00,39.7,29.3,29.67,West,279,14.0,24.0,66,0.00,,,0.00,Wunderground v.1.15,2013-01-19 23:44:00,
2013-01-19 17:49:00,39.6,28.8,29.67,WSW,256,14.0,24.0,65,0.00,,,0.00,Wunderground v.1.15,2013-01-19 23:49:00,
2013-01-19 17:51:00,39.5,29.1,29.67,SW,229,13.0,24.0,66,0.00,,,0.00,Wunderground v.1.15,2013-01-19 23:51:00,
2013-01-19 17:57:00,39.4,29.0,29.67,WSW,250,12.0,18.0,66,0.00,,,0.00,Wunderground v.1.15,2013-01-19 23:57:00,
2013-01-19 17:58:00,39.4,28.6,29.67,West,281,13.0,19.0,65,0.00,,,0.00,Wunderground v.1.15,2013-01-19 23:58:00,
2013-01-19 18:03:00,39.3,28.1,29.67,SW,232,14.0,22.0,64,0.00,,,0.00,Wunderground v.1.15,2013-01-20 00:03:00,
2013-01-19 18:05:00,39.1,27.9,29.67,WSW,242,14.0,22.0,64,0.00,,,0.00,Wunderground v.1.15,2013-01-20 00:05:00,
2013-01-19 18:09:00,38.9,27.4,29.67,West,260,13.0,18.0,63,0.00,,,0.00,Wunderground v.1.15,2013-01-20 00:09:00,
2013-01-19 18:12:00,38.9,26.6,29.67,West,269,13.0,18.0,61,0.00,,,0.00,Wunderground v.1.15,2013-01-20 00:12:00,
2013-01-19 18:14:00,38.8,26.9,29.67,WNW,295,13.0,24.0,62,0.00,,,0.00,Wunderground v.1.15,2013-01-20 00:14:00,
2013-01-19 18:19:00,38.8,26.1,29.67,WNW,285,14.0,17.0,60,0.00,,,0.00,Wunderground v.1.15,2013-01-20 00:19:00,
2013-01-19 18:25:00,38.4,24.9,29.66,WNW,283,14.0,20.0,58,0.00,,,0.00,Wunderground v.1.15,2013-01-20 00:25:00,
2013-01-19 18:29:00,38.3,24.4,29.66,West,269,15.0,27.0,57,0.00,,,0.00,Wunderground v.1.15,2013-01-20 00:29:00,
2013-01-19 18:34:00,38.1,24.2,29.66,WSW,258,16.0,27.0,57,0.00,,,0.00,Wunderground v.1.15,2013-01-20 00:34:00,
2013-01-19 18:35:00,38.0,24.1,29.66,WNW,282,16.0,27.0,57,0.00,,,0.00,Wunderground v.1.15,2013-01-20 00:35:00,
2013-01-19 18:43:00,37.8,23.5,29.66,WNW,287,16.0,27.0,56,0.00,,,0.00,Wunderground v.1.15,2013-01-20 00:43:00,
2013-01-19 18:46:00,37.7,23.0,29.66,NW,311,17.0,27.0,55,0.00,,,0.00,Wunderground v.1.15,2013-01-20 00:46:00,
2013-01-19 18:49:00,37.6,23.3,29.66,WNW,296,17.0,27.0,56,0.00,,,0.00,Wunderground v.1.15,2013-01-20 00:49:00,
2013-01-19 18:51:00,37.5,23.2,29.67,WSW,247,15.0,27.0,56,0.00,,,0.00,Wunderground v.1.15,2013-01-20 00:51:00,
2013-01-19 18:55:00,37.2,22.5,29.67,WNW,289,14.0,27.0,55,0.00,,,0.00,Wunderground v.1.15,2013-01-20 00:55:00,
2013-01-19 18:57:00,37.1,22.0,29.66,West,278,14.0,14.0,54,0.00,,,0.00,Wunderground v.1.15,2013-01-20 00:57:00,
2013-01-19 19:01:00,36.6,21.5,29.67,West,277,14.0,27.0,54,0.00,,,0.00,Wunderground v.1.15,2013-01-20 01:01:00,
2013-01-19 19:04:00,36.2,18.4,29.67,North,5,13.0,27.0,48,0.00,,,0.00,Wunderground v.1.15,2013-01-20 01:04:00,
2013-01-19 19:08:00,35.7,17.9,29.67,WNW,295,11.0,27.0,48,0.00,,,0.00,Wunderground v.1.15,2013-01-20 01:08:00,
2013-01-19 19:09:00,35.5,17.7,29.67,SW,232,11.0,27.0,48,0.00,,,0.00,Wunderground v.1.15,2013-01-20 01:09:00,
2013-01-19 19:15:00,34.4,16.7,29.68,West,260,12.0,27.0,48,0.00,,,0.00,Wunderground v.1.15,2013-01-20 01:15:00,
2013-01-19 19:19:00,33.6,17.4,29.69,WNW,289,13.0,27.0,51,0.00,,,0.00,Wunderground v.1.15,2013-01-20 01:19:00,
2013-01-19 19:21:00,33.2,17.0,29.69,NNW,331,13.0,27.0,51,0.00,,,0.00,Wunderground v.1.15,2013-01-20 01:21:00,
2013-01-19 19:25:00,31.9,14.4,29.69,WSW,254,15.0,28.0,48,0.00,,,0.00,Wunderground v.1.15,2013-01-20 01:25:00,
2013-01-19 19:27:00,31.5,14.5,29.70,WNW,302,14.0,17.0,49,0.00,,,0.00,Wunderground v.1.15,2013-01-20 01:27:00,
2013-01-19 19:33:00,30.4,14.9,29.71,North,355,17.0,27.0,52,0.00,,,0.00,Wunderground v.1.15,2013-01-20 01:33:00,
2013-01-19 19:34:00,30.2,14.7,29.70,West,275,16.0,27.0,52,0.00,,,0.00,Wunderground v.1.15,2013-01-20 01:34:00,
2013-01-19 19:38:00,29.6,15.0,29.72,NW,311,15.0,27.0,54,0.00,,,0.00,Wunderground v.1.15,2013-01-20 01:38:00,
2013-01-19 19:40:00,29.3,15.1,29.72,NW,309,15.0,27.0,55,0.00,,,0.00,Wunderground v.1.15,2013-01-20 01:40:00,
2013-01-19 19:43:00,27.7,14.0,29.73,NNE,30,13.0,27.0,56,0.00,,,0.00,Wunderground v.1.15,2013-01-20 01:43:00,
2013-01-19 19:46:00,26.7,13.5,29.73,NNW,330,13.0,13.0,57,0.00,,,0.00,Wunderground v.1.15,2013-01-20 01:46:00,
2013-01-19 19:51:00,25.7,12.2,29.74,NNW,336,12.0,27.0,56,0.00,,,0.00,Wunderground v.1.15,2013-01-20 01:51:00,
2013-01-19 19:54:00,25.2,10.0,29.74,NNW,348,12.0,27.0,52,0.00,,,0.00,Wunderground v.1.15,2013-01-20 01:54:00,
2013-01-19 19:59:00,24.4,8.4,29.75,NNW,334,14.0,27.0,50,0.00,,,0.00,Wunderground v.1.15,2013-01-20 01:59:00,
2013-01-19 20:02:00,24.0,8.5,29.75,WNW,292,15.0,27.0,51,0.00,,,0.00,Wunderground v.1.15,2013-01-20 02:02:00,
2013-01-19 20:04:00,23.6,8.5,29.76,NW,323,14.0,27.0,52,0.00,,,0.00,Wunderground v.1.15,2013-01-20 02:04:00,
2013-01-19 20:08:00,23.1,8.5,29.76,West,260,13.0,27.0,53,0.00,,,0.00,Wunderground v.1.15,2013-01-20 02:08:00,
2013-01-19 20:10:00,22.8,8.6,29.76,West,267,12.0,27.0,54,0.00,,,0.00,Wunderground v.1.15,2013-01-20 02:10:00,
2013-01-19 20:14:00,22.2,8.1,29.77,West,275,12.0,27.0,54,0.00,,,0.00,Wunderground v.1.15,2013-01-20 02:14:00,
2013-01-19 20:17:00,21.8,8.1,29.78,SW,226,13.0,27.0,55,0.00,,,0.00,Wunderground v.1.15,2013-01-20 02:17:00,
2013-01-19 20:19:00,21.5,8.2,29.78,NW,306,13.0,27.0,56,0.00,,,0.00,Wunderground v.1.15,2013-01-20 02:19:00,
2013-01-19 20:25:00,20.8,8.3,29.78,North,355,13.0,27.0,58,0.00,,,0.00,Wunderground v.1.15,2013-01-20 02:25:00,
2013-01-19 20:26:00,20.8,8.3,29.79,West,261,13.0,13.0,58,0.00,,,0.00,Wunderground v.1.15,2013-01-20 02:26:00,
2013-01-19 20:31:00,20.3,7.9,29.80,NW,321,11.0,27.0,58,0.00,,,0.00,Wunderground v.1.15,2013-01-20 02:31:00,
2013-01-19 20:33:00,20.2,8.1,29.80,North,355,10.0,27.0,59,0.00,,,0.00,Wunderground v.1.15,2013-01-20 02:33:00,
2013-01-19 20:36:00,20.0,8.0,29.81,North,355,10.0,27.0,59,0.00,,,0.00,Wunderground v.1.15,2013-01-20 02:36:00,
2013-01-19 20:40:00,19.7,8.0,29.81,West,272,10.0,27.0,60,0.00,,,0.00,Wunderground v.1.15,2013-01-20 02:40:00,
2013-01-19 20:44:00,19.3,7.0,29.82,NNW,346,14.0,-999.0,60,-99.99,,,0.00,weatherlink.com 1.10,2013-01-20 02:44:00,
2013-01-19 20:45:00,19.3,8.0,29.82,North,350,11.0,27.0,61,0.00,,,0.00,Wunderground v.1.15,2013-01-20 02:45:00,
2013-01-19 20:49:00,18.9,7.3,29.82,West,266,11.0,27.0,60,0.00,,,0.00,Wunderground v.1.15,2013-01-20 02:49:00,
2013-01-19 20:50:00,18.8,7.2,29.83,North,350,12.0,27.0,60,0.00,,,0.00,Wunderground v.1.15,2013-01-20 02:50:00,
2013-01-19 20:55:00,18.3,7.1,29.83,SW,235,9.0,27.0,61,0.00,,,0.00,Wunderground v.1.15,2013-01-20 02:55:00,
2013-01-19 20:58:00,18.0,6.8,29.84,North,355,10.0,11.0,61,0.00,,,0.00,Wunderground v.1.15,2013-01-20 02:58:00,
2013-01-19 21:01:00,17.7,6.5,29.84,NNW,348,9.0,16.0,61,0.00,,,0.00,Wunderground v.1.15,2013-01-20 03:01:00,
2013-01-19 21:03:00,17.4,5.5,29.84,NW,318,10.0,16.0,59,0.00,,,0.00,Wunderground v.1.15,2013-01-20 03:03:00,
2013-01-19 21:07:00,16.9,5.4,29.84,WNW,285,9.0,25.0,60,0.00,,,0.00,Wunderground v.1.15,2013-01-20 03:07:00,
2013-01-19 21:10:00,16.6,5.5,29.83,West,262,10.0,25.0,61,0.00,,,0.00,Wunderground v.1.15,2013-01-20 03:10:00,
2013-01-19 21:12:00,16.4,5.3,29.85,WSW,252,10.0,25.0,61,0.00,,,0.00,Wunderground v.1.15,2013-01-20 03:12:00,
2013-01-19 21:15:00,16.2,5.1,29.84,ENE,73,11.0,25.0,61,0.00,,,0.00,Wunderground v.1.15,2013-01-20 03:15:00,
2013-01-19 21:19:00,15.8,4.7,29.85,West,269,12.0,19.0,61,0.00,,,0.00,Wunderground v.1.15,2013-01-20 03:19:00,
2013-01-19 21:21:00,15.6,4.9,29.86,West,268,12.0,19.0,62,0.00,,,0.00,Wunderground v.1.15,2013-01-20 03:21:00,
2013-01-19 21:27:00,15.0,4.0,29.87,North,351,11.0,22.0,61,0.00,,,0.00,Wunderground v.1.15,2013-01-20 03:27:00,
2013-01-19 21:33:00,14.8,3.8,29.87,South,176,11.0,31.0,61,0.00,,,0.00,Wunderground v.1.15,2013-01-20 03:33:00,
2013-01-19 21:34:00,14.6,3.6,29.87,WNW,296,11.0,31.0,61,0.00,,,0.00,Wunderground v.1.15,2013-01-20 03:34:00,
2013-01-19 21:38:00,14.4,3.0,29.88,WNW,293,10.0,17.0,60,0.00,,,0.00,Wunderground v.1.15,2013-01-20 03:38:00,
2013-01-19 21:39:00,14.3,2.9,29.87,West,277,11.0,31.0,60,0.00,,,0.00,Wunderground v.1.15,2013-01-20 03:39:00,
2013-01-19 21:47:00,13.8,2.8,29.88,West,274,10.0,31.0,61,0.00,,,0.00,Wunderground v.1.15,2013-01-20 03:47:00,
2013-01-19 21:48:00,13.7,2.7,29.89,WNW,300,9.0,31.0,61,0.00,,,0.00,Wunderground v.1.15,2013-01-20 03:48:00,
2013-01-19 21:53:00,13.3,2.3,29.89,West,265,10.0,31.0,61,0.00,,,0.00,Wunderground v.1.15,2013-01-20 03:53:00,
2013-01-19 21:55:00,13.2,2.6,29.89,NW,306,10.0,31.0,62,0.00,,,0.00,Wunderground v.1.15,2013-01-20 03:55:00,
2013-01-19 21:59:00,12.9,2.0,29.90,NNW,333,11.0,14.0,61,0.00,,,0.00,Wunderground v.1.15,2013-01-20 03:59:00,
2013-01-19 22:02:00,12.7,1.8,29.90,NNW,340,11.0,14.0,61,0.00,,,0.00,Wunderground v.1.15,2013-01-20 04:02:00,
2013-01-19 22:07:00,12.5,2.3,29.91,WNW,297,11.0,11.0,63,0.00,,,0.00,Wunderground v.1.15,2013-01-20 04:07:00,
2013-01-19 22:08:00,12.5,2.3,29.91,North,9,11.0,11.0,63,0.00,,,0.00,Wunderground v.1.15,2013-01-20 04:08:00,
2013-01-19 22:13:00,12.4,2.5,29.92,WNW,297,8.0,11.0,64,0.00,,,0.00,Wunderground v.1.15,2013-01-20 04:13:00,
2013-01-19 22:16:00,12.3,1.7,29.92,WNW,295,7.0,8.0,62,0.00,,,0.00,Wunderground v.1.15,2013-01-20 04:16:00,
2013-01-19 22:19:00,12.1,1.6,29.92,North,5,7.0,12.0,62,0.00,,,0.00,Wunderground v.1.15,2013-01-20 04:19:00,
2013-01-19 22:24:00,11.9,1.4,29.92,NW,315,8.0,14.0,62,0.00,,,0.00,Wunderground v.1.15,2013-01-20 04:24:00,
2013-01-19 22:25:00,11.9,1.4,29.93,NW,314,8.0,14.0,62,0.00,,,0.00,Wunderground v.1.15,2013-01-20 04:25:00,
2013-01-19 22:29:00,11.6,0.7,29.92,WNW,284,10.0,29.0,61,0.00,,,0.00,Wunderground v.1.15,2013-01-20 04:29:00,
2013-01-19 22:33:00,11.5,0.6,29.94,West,269,11.0,29.0,61,0.00,,,0.00,Wunderground v.1.15,2013-01-20 04:33:00,
2013-01-19 22:37:00,11.3,0.8,29.94,North,360,12.0,12.0,62,0.00,,,0.00,Wunderground v.1.15,2013-01-20 04:37:00,
2013-01-19 22:42:00,11.2,1.0,29.95,West,267,10.0,29.0,63,0.00,,,0.00,Wunderground v.1.15,2013-01-20 04:42:00,
2013-01-19 22:43:00,11.2,1.0,29.94,NW,312,10.0,29.0,63,0.00,,,0.00,Wunderground v.1.15,2013-01-20 04:43:00,
2013-01-19 22:48:00,11.0,0.9,29.95,NNW,335,9.0,29.0,63,0.00,,,0.00,Wunderground v.1.15,2013-01-20 04:48:00,
2013-01-19 22:50:00,11.0,0.9,29.95,SSW,205,9.0,29.0,63,0.00,,,0.00,Wunderground v.1.15,2013-01-20 04:50:00,
2013-01-19 22:55:00,10.8,0.7,29.95,WNW,301,8.0,29.0,63,0.00,,,0.00,Wunderground v.1.15,2013-01-20 04:55:00,
2013-01-19 22:57:00,10.8,1.3,29.96,West,277,7.0,8.0,65,0.00,,,0.00,Wunderground v.1.15,2013-01-20 04:57:00,
2013-01-19 23:02:00,10.5,1.0,29.96,WNW,298,8.0,17.0,65,0.00,,,0.00,Wunderground v.1.15,2013-01-20 05:02:00,
2013-01-19 23:03:00,10.5,1.4,29.96,NNW,333,8.0,20.0,66,0.00,,,0.00,Wunderground v.1.15,2013-01-20 05:03:00,
2013-01-19 23:07:00,10.3,0.9,29.96,West,278,10.0,10.0,65,0.00,,,0.00,Wunderground v.1.15,2013-01-20 05:07:00,
2013-01-19 23:08:00,10.2,1.1,29.97,West,263,10.0,10.0,66,0.00,,,0.00,Wunderground v.1.15,2013-01-20 05:08:00,
2013-01-19 23:10:00,10.2,1.4,29.97,NW,318,9.0,10.0,67,0.00,,,0.00,Wunderground v.1.15,2013-01-20 05:10:00,
2013-01-19 23:12:00,10.1,1.0,29.97,NNW,339,9.0,17.0,66,0.00,,,0.00,Wunderground v.1.15,2013-01-20 05:12:00,
2013-01-19 23:14:00,10.0,0.9,29.97,WNW,287,10.0,17.0,66,0.00,,,0.00,Wunderground v.1.15,2013-01-20 05:14:00,
2013-01-19 23:16:00,9.9,1.1,29.97,SSW,207,9.0,9.0,67,0.00,,,0.00,Wunderground v.1.15,2013-01-20 05:16:00,
2013-01-19 23:18:00,9.8,1.0,29.97,West,279,10.0,12.0,67,0.00,,,0.00,Wunderground v.1.15,2013-01-20 05:18:00,
2013-01-19 23:21:00,9.8,1.0,29.98,NNW,343,11.0,25.0,67,0.00,,,0.00,Wunderground v.1.15,2013-01-20 05:21:00,
2013-01-19 23:23:00,9.7,1.2,29.98,WNW,296,11.0,25.0,68,0.00,,,0.00,Wunderground v.1.15,2013-01-20 05:23:00,
2013-01-19 23:24:00,9.6,1.5,29.98,NNW,336,11.0,25.0,69,0.00,,,0.00,Wunderground v.1.15,2013-01-20 05:24:00,
2013-01-19 23:27:00,9.6,1.5,29.98,SSW,200,11.0,26.0,69,0.00,,,0.00,Wunderground v.1.15,2013-01-20 05:27:00,
2013-01-19 23:31:00,9.4,1.0,29.99,NNW,336,11.0,26.0,68,0.00,,,0.00,Wunderground v.1.15,2013-01-20 05:31:00,
2013-01-19 23:33:00,9.3,0.9,29.99,NW,325,10.0,26.0,68,0.00,,,0.00,Wunderground v.1.15,2013-01-20 05:33:00,
2013-01-19 23:37:00,9.1,-0.3,29.99,WNW,286,10.0,18.0,65,0.00,,,0.00,Wunderground v.1.15,2013-01-20 05:37:00,
2013-01-19 23:38:00,9.1,-0.6,30.00,NW,323,10.0,26.0,64,0.00,,,0.00,Wunderground v.1.15,2013-01-20 05:38:00,
2013-01-19 23:41:00,9.0,-1.4,30.00,North,349,10.0,26.0,62,0.00,,,0.00,Wunderground v.1.15,2013-01-20 05:41:00,
2013-01-19 23:42:00,8.9,-1.8,30.00,NW,312,10.0,26.0,61,0.00,,,0.00,Wunderground v.1.15,2013-01-20 05:42:00,
2013-01-19 23:44:00,8.9,-2.0,30.00,WSW,238,14.0,-999.0,61,-99.99,,,0.00,weatherlink.com 1.10,2013-01-20 05:44:00,
2013-01-19 23:48:00,8.7,-2.0,30.00,NW,325,12.0,26.0,61,0.00,,,0.00,Wunderground v.1.15,2013-01-20 05:48:00,
2013-01-19 23:50:00,8.7,-1.7,30.01,NW,307,11.0,26.0,62,0.00,,,0.00,Wunderground v.1.15,2013-01-20 05:50:00,
2013-01-19 23:51:00,8.7,-1.7,30.01,North,355,12.0,26.0,62,0.00,,,0.00,Wunderground v.1.15,2013-01-20 05:51:00,
2013-01-19 23:55:00,8.6,-1.1,30.01,WNW,299,10.0,26.0,64,0.00,,,0.00,Wunderground v.1.15,2013-01-20 05:55:00,
2013-01-19 23:57:00,8.5,-1.2,30.01,WNW,292,10.0,23.0,64,0.00,,,0.00,Wunderground v.1.15,2013-01-20 05:57:00,
2013-01-19 23:59:00,8.4,-1.3,30.01,West,275,10.0,23.0,64,0.00,,,0.00,Wunderground v.1.15,2013-01-20 05:59:00,